Location: Unspecified
(44.0704°N, 88.6889°W)
Time: 07:41:43
(UTC+02:00)

Altair - Pass Details

Date: 21 June 2019
Orbit: 1501 x 1683 km, 47.2° (Epoch: 17 July)

Event Time Altitude Azimuth Distance (km) Brightness Sun altitude
Rises 11:27:44 0° 293° (WNW) 4,891 9.9 -7.0°
Reaches altitude 10° 11:31:23 10° 284° (WNW) 3,919 9.3 -6.5°
Maximum altitude 11:39:31 29° 229° (SW) 2,721 8.3 -5.4°
Drops below altitude 10° 11:47:43 10° 174° (S) 3,932 9.3 -4.3°
Sets 11:51:25 0° 164° (SSE) 4,908 9.9 -3.8°
